Time,TemperatureF,DewpointF,PressureIn,WindDirection,WindDirectionDegrees,WindSpeedMPH,WindSpeedGustMPH,Humidity,HourlyPrecipIn,Conditions,Clouds,dailyrainin,SoftwareType,DateUTC
2013-05-04 00:00:00,46.0,45.0,29.96,South,186,1.0,2.0,96,0.00,,,0.00,meteohub,2013-05-04 04:00:00,
2013-05-04 00:01:00,46.0,45.0,29.96,South,173,0.0,2.0,96,0.00,,,0.00,meteohub,2013-05-04 04:01:00,
2013-05-04 00:02:00,46.0,45.0,29.96,South,175,1.0,2.0,96,0.00,,,0.00,meteohub,2013-05-04 04:02:00,
2013-05-04 00:07:00,46.0,45.0,29.96,South,173,0.0,2.0,96,0.00,,,0.00,meteohub,2013-05-04 04:07:00,
2013-05-04 00:11:00,46.0,45.0,29.96,South,171,0.0,22.0,96,0.00,,,0.00,meteohub,2013-05-04 04:11:00,
2013-05-04 00:16:00,46.0,45.0,29.96,South,177,0.0,22.0,96,0.00,,,0.00,meteohub,2013-05-04 04:16:00,
2013-05-04 00:21:00,46.0,45.0,29.96,SSW,194,0.0,4.0,96,0.00,,,0.00,meteohub,2013-05-04 04:21:00,
2013-05-04 00:27:00,46.0,45.0,29.96,South,180,0.0,19.0,96,0.00,,,0.00,meteohub,2013-05-04 04:27:00,
2013-05-04 00:32:00,46.0,45.0,29.95,SSE,157,0.0,19.0,96,0.00,,,0.00,meteohub,2013-05-04 04:32:00,
2013-05-04 00:37:00,46.0,45.0,29.95,South,177,0.0,19.0,96,0.00,,,0.00,meteohub,2013-05-04 04:37:00,
2013-05-04 00:42:00,46.0,45.0,29.96,South,179,0.0,3.0,96,0.00,,,0.00,meteohub,2013-05-04 04:42:00,
2013-05-04 00:47:00,46.0,45.0,29.95,South,178,1.0,8.0,96,0.00,,,0.00,meteohub,2013-05-04 04:47:00,
2013-05-04 00:52:00,45.9,44.8,29.95,South,189,0.0,8.0,96,0.00,,,0.00,meteohub,2013-05-04 04:52:00,
2013-05-04 00:57:00,45.9,44.8,29.95,South,169,0.0,8.0,96,0.00,,,0.00,meteohub,2013-05-04 04:57:00,
2013-05-04 01:02:00,45.9,44.8,29.94,South,178,1.0,1.0,96,0.00,,,0.00,meteohub,2013-05-04 05:02:00,
2013-05-04 01:07:00,46.0,45.0,29.94,South,186,0.0,17.0,96,0.00,,,0.00,meteohub,2013-05-04 05:07:00,
2013-05-04 01:12:00,46.0,45.0,29.95,South,185,0.0,17.0,96,0.00,,,0.00,meteohub,2013-05-04 05:12:00,
2013-05-04 01:17:00,45.9,44.8,29.94,South,186,1.0,11.0,96,0.00,,,0.00,meteohub,2013-05-04 05:17:00,
2013-05-04 01:22:00,45.7,44.6,29.94,South,181,0.0,4.0,96,0.00,,,0.00,meteohub,2013-05-04 05:22:00,
2013-05-04 01:26:00,45.3,44.2,29.94,South,176,1.0,3.0,96,0.00,,,0.00,meteohub,2013-05-04 05:26:00,
2013-05-04 01:31:00,45.1,44.1,29.94,South,179,1.0,18.0,96,0.00,,,0.00,meteohub,2013-05-04 05:31:00,
2013-05-04 01:36:00,45.1,44.1,29.94,South,173,0.0,27.0,96,0.00,,,0.00,meteohub,2013-05-04 05:36:00,
2013-05-04 01:41:00,45.0,43.9,29.93,South,186,0.0,27.0,96,0.00,,,0.00,meteohub,2013-05-04 05:41:00,
2013-05-04 01:46:00,45.0,43.9,29.94,South,187,0.0,20.0,96,0.00,,,0.00,meteohub,2013-05-04 05:46:00,
2013-05-04 01:51:00,45.0,43.9,29.93,South,179,1.0,1.0,96,0.00,,,0.00,meteohub,2013-05-04 05:51:00,
2013-05-04 01:56:00,44.8,43.7,29.93,South,183,0.0,15.0,96,0.00,,,0.00,meteohub,2013-05-04 05:56:00,
2013-05-04 02:01:00,44.6,43.5,29.93,South,176,4.0,15.0,96,0.00,,,0.00,meteohub,2013-05-04 06:01:00,
2013-05-04 02:06:00,44.4,43.3,29.92,West,270,0.0,17.0,96,0.00,,,0.00,meteohub,2013-05-04 06:06:00,
2013-05-04 02:11:00,44.4,43.3,29.93,South,180,0.0,20.0,96,0.00,,,0.00,meteohub,2013-05-04 06:11:00,
2013-05-04 02:16:00,44.2,43.2,29.92,South,177,1.0,20.0,96,0.00,,,0.00,meteohub,2013-05-04 06:16:00,
2013-05-04 02:21:00,44.2,43.2,29.93,South,187,0.0,20.0,96,0.00,,,0.00,meteohub,2013-05-04 06:21:00,
2013-05-04 02:26:00,44.2,43.2,29.92,SSE,166,0.0,11.0,96,0.00,,,0.00,meteohub,2013-05-04 06:26:00,
2013-05-04 02:31:00,44.1,43.0,29.92,South,178,1.0,20.0,96,0.00,,,0.00,meteohub,2013-05-04 06:31:00,
2013-05-04 02:36:00,44.1,43.0,29.91,South,178,0.0,20.0,96,0.00,,,0.00,meteohub,2013-05-04 06:36:00,
2013-05-04 02:41:00,43.9,42.6,29.92,South,181,0.0,13.0,95,0.00,,,0.00,meteohub,2013-05-04 06:41:00,
2013-05-04 02:47:00,43.9,42.6,29.92,South,175,1.0,19.0,95,0.00,,,0.00,meteohub,2013-05-04 06:47:00,
2013-05-04 02:52:00,43.7,42.6,29.92,NNW,346,0.0,19.0,96,0.00,,,0.00,meteohub,2013-05-04 06:52:00,
2013-05-04 02:57:00,43.7,42.6,29.92,South,181,0.0,19.0,96,0.00,,,0.00,meteohub,2013-05-04 06:57:00,
2013-05-04 03:02:00,43.5,42.4,29.92,South,188,0.0,19.0,96,0.00,,,0.00,meteohub,2013-05-04 07:02:00,
2013-05-04 03:07:00,43.5,42.4,29.92,South,183,0.0,19.0,96,0.00,,,0.00,meteohub,2013-05-04 07:07:00,
2013-05-04 03:12:00,43.3,42.3,29.92,SSW,210,0.0,17.0,96,0.00,,,0.00,meteohub,2013-05-04 07:12:00,
2013-05-04 03:17:00,43.0,41.9,29.92,SSW,193,0.0,17.0,96,0.00,,,0.00,meteohub,2013-05-04 07:17:00,
2013-05-04 03:22:00,42.6,41.4,29.92,WNW,287,0.0,1.0,95,0.00,,,0.00,meteohub,2013-05-04 07:22:00,
2013-05-04 03:27:00,42.6,41.5,29.92,South,185,0.0,1.0,96,0.00,,,0.00,meteohub,2013-05-04 07:27:00,
2013-05-04 03:32:00,42.6,41.5,29.92,South,189,0.0,1.0,96,0.00,,,0.00,meteohub,2013-05-04 07:32:00,
2013-05-04 03:37:00,42.4,41.4,29.92,SSE,156,0.0,1.0,96,0.00,,,0.00,meteohub,2013-05-04 07:37:00,
2013-05-04 03:42:00,42.4,41.4,29.91,South,177,0.0,1.0,96,0.00,,,0.00,meteohub,2013-05-04 07:42:00,
2013-05-04 03:47:00,42.4,41.4,29.91,South,183,0.0,1.0,96,0.00,,,0.00,meteohub,2013-05-04 07:47:00,
2013-05-04 03:52:00,42.4,41.4,29.91,South,185,1.0,1.0,96,0.00,,,0.00,meteohub,2013-05-04 07:52:00,
2013-05-04 03:57:00,42.3,41.2,29.91,South,179,0.0,17.0,96,0.00,,,0.00,meteohub,2013-05-04 07:57:00,
2013-05-04 04:02:00,42.3,41.0,29.91,South,181,0.0,17.0,95,0.00,,,0.00,meteohub,2013-05-04 08:02:00,
2013-05-04 04:07:00,42.1,40.8,29.91,South,177,0.0,2.0,95,0.00,,,0.00,meteohub,2013-05-04 08:07:00,
2013-05-04 04:12:00,42.1,40.8,29.91,South,183,0.0,2.0,95,0.00,,,0.00,meteohub,2013-05-04 08:12:00,
2013-05-04 04:17:00,42.1,40.8,29.91,South,174,0.0,15.0,95,0.00,,,0.00,meteohub,2013-05-04 08:17:00,
2013-05-04 04:22:00,41.9,40.6,29.91,South,180,0.0,15.0,95,0.00,,,0.00,meteohub,2013-05-04 08:22:00,
2013-05-04 04:27:00,41.7,40.1,29.91,South,183,0.0,1.0,94,0.00,,,0.00,meteohub,2013-05-04 08:27:00,
2013-05-04 04:32:00,41.7,40.1,29.91,South,181,0.0,1.0,94,0.00,,,0.00,meteohub,2013-05-04 08:32:00,
2013-05-04 04:37:00,41.5,39.9,29.91,South,185,1.0,1.0,94,0.00,,,0.00,meteohub,2013-05-04 08:37:00,
2013-05-04 04:42:00,41.5,39.9,29.91,South,171,0.0,1.0,94,0.00,,,0.00,meteohub,2013-05-04 08:42:00,
2013-05-04 04:47:00,41.4,39.7,29.91,South,186,0.0,1.0,94,0.00,,,0.00,meteohub,2013-05-04 08:47:00,
2013-05-04 04:52:00,41.2,39.4,29.91,South,179,1.0,1.0,93,0.00,,,0.00,meteohub,2013-05-04 08:52:00,
2013-05-04 04:57:00,41.2,39.6,29.91,SSW,192,0.0,1.0,94,0.00,,,0.00,meteohub,2013-05-04 08:57:00,
2013-05-04 05:02:00,41.0,39.4,29.92,South,171,0.0,1.0,94,0.00,,,0.00,meteohub,2013-05-04 09:02:00,
2013-05-04 05:07:00,40.8,39.2,29.92,South,183,0.0,1.0,94,0.00,,,0.00,meteohub,2013-05-04 09:07:00,
2013-05-04 05:12:00,40.6,39.0,29.91,South,180,1.0,1.0,94,0.00,,,0.00,meteohub,2013-05-04 09:12:00,
2013-05-04 05:17:00,40.6,38.8,29.92,South,181,0.0,1.0,93,0.00,,,0.00,meteohub,2013-05-04 09:17:00,
2013-05-04 05:22:00,40.5,38.3,29.91,South,187,1.0,2.0,92,0.00,,,0.00,meteohub,2013-05-04 09:22:00,
2013-05-04 05:27:00,40.5,38.3,29.91,South,186,0.0,2.0,92,0.00,,,0.00,meteohub,2013-05-04 09:27:00,
2013-05-04 05:32:00,40.5,38.3,29.91,South,187,0.0,1.0,92,0.00,,,0.00,meteohub,2013-05-04 09:32:00,
2013-05-04 05:37:00,40.3,38.1,29.91,South,187,0.0,1.0,92,0.00,,,0.00,meteohub,2013-05-04 09:37:00,
2013-05-04 05:42:00,40.3,38.5,29.92,South,189,0.0,10.0,93,0.00,,,0.00,meteohub,2013-05-04 09:42:00,
2013-05-04 05:47:00,40.1,38.3,29.92,South,169,0.0,10.0,93,0.00,,,0.00,meteohub,2013-05-04 09:47:00,
2013-05-04 05:52:00,39.9,38.3,29.92,South,185,0.0,10.0,94,0.00,,,0.00,meteohub,2013-05-04 09:52:00,
2013-05-04 05:57:00,39.9,38.3,29.92,South,176,0.0,10.0,94,0.00,,,0.00,meteohub,2013-05-04 09:57:00,
2013-05-04 06:02:00,39.9,38.3,29.92,SSE,165,0.0,7.0,94,0.00,,,0.00,meteohub,2013-05-04 10:02:00,
2013-05-04 06:07:00,39.7,38.1,29.92,South,185,0.0,2.0,94,0.00,,,0.00,meteohub,2013-05-04 10:07:00,
2013-05-04 06:12:00,39.7,38.1,29.92,South,174,0.0,1.0,94,0.00,,,0.00,meteohub,2013-05-04 10:12:00,
2013-05-04 06:17:00,39.9,38.7,29.92,South,179,0.0,1.0,95,0.00,,,0.00,meteohub,2013-05-04 10:17:00,
2013-05-04 06:22:00,39.9,38.7,29.91,South,184,0.0,1.0,95,0.00,,,0.00,meteohub,2013-05-04 10:22:00,
2013-05-04 06:27:00,40.3,39.0,29.91,South,185,0.0,1.0,95,0.00,,,0.00,meteohub,2013-05-04 10:27:00,
2013-05-04 06:32:00,40.3,39.2,29.91,South,181,1.0,1.0,96,0.00,,,0.00,meteohub,2013-05-04 10:32:00,
2013-05-04 06:37:00,40.5,39.4,29.91,South,180,1.0,1.0,96,0.00,,,0.00,meteohub,2013-05-04 10:37:00,
2013-05-04 06:42:00,40.6,39.6,29.92,South,186,0.0,1.0,96,0.00,,,0.00,meteohub,2013-05-04 10:42:00,
2013-05-04 06:47:00,40.6,39.6,29.92,South,185,0.0,1.0,96,0.00,,,0.00,meteohub,2013-05-04 10:47:00,
2013-05-04 06:52:00,40.6,39.6,29.92,SE,125,0.0,1.0,96,0.00,,,0.00,meteohub,2013-05-04 10:52:00,
2013-05-04 06:57:00,40.6,39.6,29.92,South,176,0.0,1.0,96,0.00,,,0.00,meteohub,2013-05-04 10:57:00,
2013-05-04 07:02:00,40.6,39.6,29.92,South,187,0.0,1.0,96,0.00,,,0.00,meteohub,2013-05-04 11:02:00,
2013-05-04 07:07:00,40.5,39.4,29.92,SSE,166,1.0,20.0,96,0.00,,,0.00,meteohub,2013-05-04 11:07:00,
2013-05-04 07:12:00,40.3,39.2,29.92,South,169,0.0,20.0,96,0.00,,,0.00,meteohub,2013-05-04 11:12:00,
2013-05-04 07:17:00,40.3,39.2,29.92,SSW,196,0.0,20.0,96,0.00,,,0.00,meteohub,2013-05-04 11:17:00,
2013-05-04 07:22:00,40.3,39.2,29.92,South,175,0.0,17.0,96,0.00,,,0.00,meteohub,2013-05-04 11:22:00,
2013-05-04 07:27:00,40.3,39.2,29.92,South,189,0.0,16.0,96,0.00,,,0.00,meteohub,2013-05-04 11:27:00,
2013-05-04 07:32:00,40.3,39.6,29.92,South,169,1.0,14.0,97,0.00,,,0.00,meteohub,2013-05-04 11:32:00,
2013-05-04 07:37:00,40.1,39.4,29.92,South,178,0.0,2.0,97,0.00,,,0.00,meteohub,2013-05-04 11:37:00,
2013-05-04 07:42:00,40.1,39.4,29.93,South,185,0.0,2.0,97,0.00,,,0.00,meteohub,2013-05-04 11:42:00,
2013-05-04 07:47:00,39.9,39.2,29.92,SSE,162,0.0,2.0,97,0.00,,,0.00,meteohub,2013-05-04 11:47:00,
2013-05-04 07:52:00,39.9,39.2,29.92,SSE,166,0.0,1.0,97,0.00,,,0.00,meteohub,2013-05-04 11:52:00,
2013-05-04 07:57:00,39.9,39.2,29.93,South,183,0.0,1.0,97,0.00,,,0.00,meteohub,2013-05-04 11:57:00,
2013-05-04 08:02:00,39.9,39.2,29.93,South,189,1.0,13.0,97,0.00,,,0.00,meteohub,2013-05-04 12:02:00,
2013-05-04 08:07:00,39.9,39.2,29.93,South,181,0.0,13.0,97,0.00,,,0.00,meteohub,2013-05-04 12:07:00,
2013-05-04 08:12:00,39.9,39.2,29.93,South,182,0.0,1.0,97,0.00,,,0.00,meteohub,2013-05-04 12:12:00,
2013-05-04 08:17:00,39.9,39.2,29.93,South,175,1.0,1.0,97,0.00,,,0.00,meteohub,2013-05-04 12:17:00,
2013-05-04 08:22:00,39.9,39.2,29.93,South,179,0.0,1.0,97,0.00,,,0.00,meteohub,2013-05-04 12:22:00,
2013-05-04 08:27:00,40.1,39.4,29.93,SSE,167,0.0,1.0,97,0.00,,,0.00,meteohub,2013-05-04 12:27:00,
2013-05-04 08:32:00,40.3,39.6,29.93,South,181,0.0,1.0,97,0.00,,,0.00,meteohub,2013-05-04 12:32:00,
2013-05-04 08:37:00,40.3,39.6,29.93,South,187,0.0,5.0,97,0.00,,,0.00,meteohub,2013-05-04 12:37:00,
2013-05-04 08:42:00,40.5,39.7,29.93,South,183,0.0,5.0,97,0.00,,,0.00,meteohub,2013-05-04 12:42:00,
2013-05-04 08:47:00,40.5,39.7,29.93,South,187,1.0,2.0,97,0.00,,,0.00,meteohub,2013-05-04 12:47:00,
2013-05-04 08:52:00,40.6,39.9,29.93,South,179,1.0,3.0,97,0.00,,,0.00,meteohub,2013-05-04 12:52:00,
2013-05-04 08:57:00,40.6,39.9,29.93,South,188,0.0,3.0,97,0.00,,,0.00,meteohub,2013-05-04 12:57:00,
2013-05-04 09:02:00,40.6,39.9,29.93,South,184,0.0,1.0,97,0.00,,,0.00,meteohub,2013-05-04 13:02:00,
2013-05-04 09:03:00,40.6,39.9,29.93,South,175,0.0,1.0,97,0.00,,,0.00,meteohub,2013-05-04 13:03:00,
2013-05-04 09:09:00,40.8,40.1,29.93,SW,233,0.0,1.0,97,0.00,,,0.00,meteohub,2013-05-04 13:09:00,
2013-05-04 09:14:00,40.8,40.1,29.93,South,188,1.0,2.0,97,0.00,,,0.00,meteohub,2013-05-04 13:14:00,
2013-05-04 09:19:00,40.8,40.1,29.93,South,175,0.0,3.0,97,0.00,,,0.00,meteohub,2013-05-04 13:19:00,
2013-05-04 09:24:00,40.8,40.1,29.93,South,185,0.0,3.0,97,0.00,,,0.00,meteohub,2013-05-04 13:24:00,
2013-05-04 09:29:00,41.0,40.3,29.93,South,171,0.0,3.0,97,0.00,,,0.00,meteohub,2013-05-04 13:29:00,
2013-05-04 09:34:00,41.0,40.3,29.93,South,171,0.0,3.0,97,0.00,,,0.00,meteohub,2013-05-04 13:34:00,
2013-05-04 09:39:00,41.2,40.5,29.93,South,179,0.0,3.0,97,0.00,,,0.00,meteohub,2013-05-04 13:39:00,
2013-05-04 09:44:00,41.4,40.6,29.93,South,187,0.0,6.0,97,0.00,,,0.00,meteohub,2013-05-04 13:44:00,
2013-05-04 09:49:00,41.2,40.5,29.93,South,183,0.0,6.0,97,0.00,,,0.00,meteohub,2013-05-04 13:49:00,
2013-05-04 09:54:00,41.4,40.6,29.93,South,188,0.0,19.0,97,0.00,,,0.00,meteohub,2013-05-04 13:54:00,
2013-05-04 09:59:00,41.4,40.6,29.93,South,185,0.0,19.0,97,0.00,,,0.00,meteohub,2013-05-04 13:59:00,
2013-05-04 10:04:00,41.5,40.8,29.93,South,179,0.0,19.0,97,0.00,,,0.00,meteohub,2013-05-04 14:04:00,
2013-05-04 10:09:00,41.5,40.8,29.93,South,186,1.0,1.0,97,0.00,,,0.00,meteohub,2013-05-04 14:09:00,
2013-05-04 10:14:00,41.5,40.8,29.93,South,175,0.0,1.0,97,0.00,,,0.00,meteohub,2013-05-04 14:14:00,
2013-05-04 10:19:00,41.7,41.0,29.93,South,178,0.0,1.0,97,0.00,,,0.00,meteohub,2013-05-04 14:19:00,
2013-05-04 10:24:00,42.1,41.4,29.93,South,177,0.0,1.0,97,0.00,,,0.00,meteohub,2013-05-04 14:24:00,
2013-05-04 10:29:00,42.1,41.4,29.93,South,178,0.0,1.0,97,0.00,,,0.00,meteohub,2013-05-04 14:29:00,
2013-05-04 10:34:00,42.1,41.4,29.93,South,183,0.0,1.0,97,0.00,,,0.00,meteohub,2013-05-04 14:34:00,
2013-05-04 10:39:00,41.9,41.2,29.93,SSE,166,0.0,1.0,97,0.00,,,0.00,meteohub,2013-05-04 14:39:00,
2013-05-04 10:44:00,42.1,41.4,29.94,South,171,0.0,1.0,97,0.00,,,0.00,meteohub,2013-05-04 14:44:00,
2013-05-04 10:49:00,42.1,41.4,29.94,South,177,0.0,2.0,97,0.00,,,0.00,meteohub,2013-05-04 14:49:00,
2013-05-04 10:54:00,42.1,41.4,29.94,South,183,0.0,2.0,97,0.00,,,0.00,meteohub,2013-05-04 14:54:00,
2013-05-04 10:59:00,42.1,41.4,29.94,South,182,0.0,1.0,97,0.00,,,0.00,meteohub,2013-05-04 14:59:00,
2013-05-04 11:04:00,42.1,41.4,29.94,South,185,0.0,2.0,97,0.00,,,0.00,meteohub,2013-05-04 15:04:00,
2013-05-04 11:09:00,42.3,41.5,29.95,South,171,0.0,2.0,97,0.00,,,0.00,meteohub,2013-05-04 15:09:00,
2013-05-04 11:14:00,42.4,41.7,29.94,South,187,0.0,2.0,97,0.00,,,0.00,meteohub,2013-05-04 15:14:00,
2013-05-04 11:19:00,42.4,41.7,29.94,South,183,0.0,1.0,97,0.00,,,0.00,meteohub,2013-05-04 15:19:00,
2013-05-04 11:24:00,42.4,41.7,29.94,South,191,0.0,1.0,97,0.00,,,0.00,meteohub,2013-05-04 15:24:00,
2013-05-04 11:29:00,42.8,42.1,29.94,South,181,0.0,1.0,97,0.00,,,0.00,meteohub,2013-05-04 15:29:00,
2013-05-04 11:34:00,42.8,42.1,29.94,South,178,0.0,1.0,97,0.00,,,0.00,meteohub,2013-05-04 15:34:00,
2013-05-04 11:39:00,43.0,42.3,29.94,South,186,0.0,1.0,97,0.00,,,0.00,meteohub,2013-05-04 15:39:00,
2013-05-04 11:44:00,42.8,42.1,29.94,South,188,0.0,1.0,97,0.00,,,0.00,meteohub,2013-05-04 15:44:00,
2013-05-04 11:49:00,43.0,42.3,29.93,South,187,0.0,1.0,97,0.00,,,0.00,meteohub,2013-05-04 15:49:00,
2013-05-04 11:54:00,43.2,42.4,29.93,South,179,0.0,1.0,97,0.00,,,0.00,meteohub,2013-05-04 15:54:00,
2013-05-04 11:59:00,43.2,42.4,29.92,South,184,0.0,1.0,97,0.00,,,0.00,meteohub,2013-05-04 15:59:00,
2013-05-04 12:04:00,43.2,42.4,29.92,SSW,196,1.0,1.0,97,0.00,,,0.00,meteohub,2013-05-04 16:04:00,
2013-05-04 12:09:00,43.2,42.4,29.92,South,182,0.0,4.0,97,0.00,,,0.00,meteohub,2013-05-04 16:09:00,
2013-05-04 12:14:00,43.3,42.6,29.92,South,177,1.0,4.0,97,0.00,,,0.00,meteohub,2013-05-04 16:14:00,
2013-05-04 12:19:00,43.3,42.6,29.92,South,186,0.0,4.0,97,0.00,,,0.00,meteohub,2013-05-04 16:19:00,
2013-05-04 12:24:00,43.2,42.4,29.92,South,183,1.0,3.0,97,0.00,,,0.00,meteohub,2013-05-04 16:24:00,
2013-05-04 12:29:00,43.2,42.4,29.92,South,183,0.0,1.0,97,0.00,,,0.00,meteohub,2013-05-04 16:29:00,
2013-05-04 12:34:00,43.3,42.6,29.91,South,181,0.0,1.0,97,0.00,,,0.00,meteohub,2013-05-04 16:34:00,
2013-05-04 12:39:00,43.3,42.6,29.91,South,184,0.0,1.0,97,0.00,,,0.00,meteohub,2013-05-04 16:39:00,
2013-05-04 12:44:00,43.3,42.6,29.92,South,187,0.0,1.0,97,0.00,,,0.00,meteohub,2013-05-04 16:44:00,
2013-05-04 12:49:00,43.5,42.8,29.92,South,184,0.0,1.0,97,0.00,,,0.00,meteohub,2013-05-04 16:49:00,
2013-05-04 12:54:00,43.5,42.8,29.92,South,173,1.0,8.0,97,0.00,,,0.00,meteohub,2013-05-04 16:54:00,
2013-05-04 12:59:00,43.5,42.8,29.92,South,187,0.0,8.0,97,0.00,,,0.00,meteohub,2013-05-04 16:59:00,
2013-05-04 13:04:00,43.7,43.0,29.92,South,176,0.0,8.0,97,0.00,,,0.00,meteohub,2013-05-04 17:04:00,
2013-05-04 13:10:00,43.5,42.8,29.92,South,181,0.0,6.0,97,0.00,,,0.00,meteohub,2013-05-04 17:10:00,
2013-05-04 13:15:00,43.5,42.8,29.92,South,181,0.0,6.0,97,0.00,,,0.00,meteohub,2013-05-04 17:15:00,
2013-05-04 13:20:00,43.5,42.8,29.92,South,179,0.0,4.0,97,0.00,,,0.00,meteohub,2013-05-04 17:20:00,
2013-05-04 13:25:00,43.5,42.8,29.91,South,188,0.0,1.0,97,0.00,,,0.00,meteohub,2013-05-04 17:25:00,
2013-05-04 13:30:00,43.5,42.8,29.91,South,181,0.0,1.0,97,0.00,,,0.00,meteohub,2013-05-04 17:30:00,
2013-05-04 13:35:00,43.3,42.6,29.91,South,181,0.0,1.0,97,0.00,,,0.00,meteohub,2013-05-04 17:35:00,
2013-05-04 13:40:00,43.3,42.6,29.91,South,187,0.0,1.0,97,0.00,,,0.00,meteohub,2013-05-04 17:40:00,
2013-05-04 13:45:00,43.3,42.6,29.91,South,179,0.0,0.0,97,0.00,,,0.00,meteohub,2013-05-04 17:45:00,
2013-05-04 13:50:00,43.5,42.8,29.91,South,179,0.0,0.0,97,0.00,,,0.00,meteohub,2013-05-04 17:50:00,
2013-05-04 13:55:00,43.7,43.0,29.91,South,182,0.0,0.0,97,0.00,,,0.00,meteohub,2013-05-04 17:55:00,
2013-05-04 14:00:00,43.7,43.0,29.90,South,177,0.0,0.0,97,0.00,,,0.00,meteohub,2013-05-04 18:00:00,
2013-05-04 14:05:00,43.9,43.2,29.90,South,180,0.0,0.0,97,0.00,,,0.00,meteohub,2013-05-04 18:05:00,
2013-05-04 14:10:00,43.9,43.2,29.90,SE,135,0.0,2.0,97,0.00,,,0.00,meteohub,2013-05-04 18:10:00,
2013-05-04 14:15:00,43.9,43.3,29.90,South,184,0.0,2.0,98,0.00,,,0.00,meteohub,2013-05-04 18:15:00,
2013-05-04 14:20:00,44.1,43.3,29.90,South,178,0.0,2.0,97,0.00,,,0.00,meteohub,2013-05-04 18:20:00,
2013-05-04 14:25:00,44.1,43.3,29.89,South,173,0.0,1.0,97,0.00,,,0.00,meteohub,2013-05-04 18:25:00,
2013-05-04 14:30:00,44.2,43.5,29.89,South,171,0.0,1.0,97,0.00,,,0.00,meteohub,2013-05-04 18:30:00,
2013-05-04 14:35:00,44.1,43.5,29.88,South,187,0.0,1.0,98,0.00,,,0.00,meteohub,2013-05-04 18:35:00,
2013-05-04 14:40:00,44.1,43.3,29.88,South,175,1.0,4.0,97,0.00,,,0.00,meteohub,2013-05-04 18:40:00,
2013-05-04 14:45:00,44.1,43.5,29.88,South,184,0.0,4.0,98,0.00,,,0.00,meteohub,2013-05-04 18:45:00,
2013-05-04 14:50:00,44.1,43.3,29.88,South,177,0.0,1.0,97,0.00,,,0.00,meteohub,2013-05-04 18:50:00,
2013-05-04 14:55:00,44.1,43.5,29.88,South,175,0.0,2.0,98,0.00,,,0.00,meteohub,2013-05-04 18:55:00,
2013-05-04 15:00:00,44.1,43.5,29.88,South,180,0.0,2.0,98,0.00,,,0.00,meteohub,2013-05-04 19:00:00,
2013-05-04 15:05:00,43.9,43.3,29.88,SSW,192,0.0,1.0,98,0.00,,,0.00,meteohub,2013-05-04 19:05:00,
2013-05-04 15:10:00,43.9,43.3,29.88,South,173,1.0,1.0,98,0.00,,,0.00,meteohub,2013-05-04 19:10:00,
2013-05-04 15:15:00,44.1,43.5,29.88,SSE,160,0.0,4.0,98,0.00,,,0.00,meteohub,2013-05-04 19:15:00,
2013-05-04 15:20:00,44.1,43.5,29.88,South,181,0.0,21.0,98,0.00,,,0.00,meteohub,2013-05-04 19:20:00,
2013-05-04 15:25:00,44.1,43.5,29.89,South,183,0.0,21.0,98,0.00,,,0.00,meteohub,2013-05-04 19:25:00,
2013-05-04 15:30:00,44.1,43.5,29.89,South,173,0.0,21.0,98,0.00,,,0.00,meteohub,2013-05-04 19:30:00,
2013-05-04 15:35:00,44.1,43.5,29.88,South,179,0.0,4.0,98,0.00,,,0.00,meteohub,2013-05-04 19:35:00,
2013-05-04 15:40:00,44.1,43.5,29.88,South,177,0.0,5.0,98,0.00,,,0.00,meteohub,2013-05-04 19:40:00,
2013-05-04 15:45:00,44.1,43.5,29.88,South,171,0.0,5.0,98,0.00,,,0.00,meteohub,2013-05-04 19:45:00,
2013-05-04 15:50:00,44.1,43.5,29.88,South,179,0.0,4.0,98,0.00,,,0.00,meteohub,2013-05-04 19:50:00,
2013-05-04 15:55:00,43.9,43.3,29.88,South,177,0.0,4.0,98,0.00,,,0.00,meteohub,2013-05-04 19:55:00,
2013-05-04 16:00:00,43.9,43.2,29.88,South,176,1.0,1.0,97,0.00,,,0.00,meteohub,2013-05-04 20:00:00,
2013-05-04 16:05:00,43.9,43.2,29.89,SSE,167,0.0,1.0,97,0.00,,,0.00,meteohub,2013-05-04 20:05:00,
2013-05-04 16:10:00,43.9,43.3,29.89,South,178,0.0,1.0,98,0.00,,,0.00,meteohub,2013-05-04 20:10:00,
2013-05-04 16:15:00,43.9,43.3,29.89,South,181,0.0,2.0,98,0.00,,,0.00,meteohub,2013-05-04 20:15:00,
2013-05-04 16:20:00,43.9,43.2,29.89,SSE,156,0.0,2.0,97,0.00,,,0.00,meteohub,2013-05-04 20:20:00,
2013-05-04 16:25:00,43.9,43.2,29.88,South,189,1.0,6.0,97,0.00,,,0.00,meteohub,2013-05-04 20:25:00,
2013-05-04 16:30:00,43.9,43.2,29.88,South,173,1.0,12.0,97,0.00,,,0.00,meteohub,2013-05-04 20:30:00,
2013-05-04 16:35:00,43.9,43.3,29.88,South,177,1.0,12.0,98,0.00,,,0.00,meteohub,2013-05-04 20:35:00,
2013-05-04 16:40:00,44.1,43.5,29.87,South,187,0.0,18.0,98,0.00,,,0.00,meteohub,2013-05-04 20:40:00,
2013-05-04 16:45:00,44.2,43.5,29.87,South,171,0.0,18.0,97,0.00,,,0.00,meteohub,2013-05-04 20:45:00,
2013-05-04 16:50:00,44.2,43.5,29.86,South,187,0.0,18.0,97,0.00,,,0.00,meteohub,2013-05-04 20:50:00,
2013-05-04 16:55:00,44.4,43.7,29.86,South,175,1.0,20.0,97,0.00,,,0.00,meteohub,2013-05-04 20:55:00,
2013-05-04 17:00:00,44.2,43.5,29.87,SSE,168,8.0,20.0,97,0.00,,,0.00,meteohub,2013-05-04 21:00:00,
2013-05-04 17:05:00,44.2,43.5,29.87,SSW,194,1.0,20.0,97,0.00,,,0.00,meteohub,2013-05-04 21:05:00,
2013-05-04 17:10:00,44.4,43.9,29.87,South,179,1.0,18.0,98,0.00,,,0.00,meteohub,2013-05-04 21:10:00,
2013-05-04 17:15:00,44.4,43.7,29.87,South,186,0.0,18.0,97,0.00,,,0.00,meteohub,2013-05-04 21:15:00,
2013-05-04 17:20:00,44.2,43.5,29.87,SSW,194,1.0,17.0,97,0.00,,,0.00,meteohub,2013-05-04 21:20:00,
2013-05-04 17:25:00,44.2,43.5,29.87,South,190,6.0,15.0,97,0.00,,,0.00,meteohub,2013-05-04 21:25:00,
2013-05-04 17:30:00,44.4,43.7,29.87,South,181,0.0,23.0,97,0.00,,,0.00,meteohub,2013-05-04 21:30:00,
2013-05-04 17:35:00,44.4,43.7,29.87,South,181,14.0,23.0,97,0.00,,,0.00,meteohub,2013-05-04 21:35:00,
2013-05-04 17:40:00,44.4,43.7,29.86,South,181,0.0,23.0,97,0.00,,,0.00,meteohub,2013-05-04 21:40:00,
2013-05-04 17:45:00,44.4,43.7,29.87,South,184,0.0,23.0,97,0.00,,,0.00,meteohub,2013-05-04 21:45:00,
2013-05-04 17:50:00,44.4,43.7,29.87,South,186,1.0,23.0,97,0.00,,,0.00,meteohub,2013-05-04 21:50:00,
2013-05-04 17:55:00,44.4,43.9,29.88,South,186,0.0,17.0,98,0.00,,,0.00,meteohub,2013-05-04 21:55:00,
2013-05-04 18:00:00,44.4,43.9,29.87,South,179,1.0,17.0,98,0.00,,,0.00,meteohub,2013-05-04 22:00:00,
2013-05-04 18:05:00,44.6,44.1,29.87,South,177,0.0,17.0,98,0.00,,,0.00,meteohub,2013-05-04 22:05:00,
2013-05-04 18:10:00,44.6,44.1,29.86,South,178,0.0,16.0,98,0.00,,,0.00,meteohub,2013-05-04 22:10:00,
2013-05-04 18:15:00,44.8,44.1,29.86,South,175,1.0,16.0,97,0.00,,,0.00,meteohub,2013-05-04 22:15:00,
2013-05-04 18:20:00,44.8,44.1,29.86,South,173,0.0,19.0,97,0.00,,,0.00,meteohub,2013-05-04 22:20:00,
2013-05-04 18:25:00,45.0,44.2,29.86,South,189,1.0,19.0,97,0.00,,,0.00,meteohub,2013-05-04 22:25:00,
2013-05-04 18:30:00,45.0,44.4,29.84,South,177,1.0,19.0,98,0.00,,,0.00,meteohub,2013-05-04 22:30:00,
2013-05-04 18:35:00,45.0,44.4,29.85,South,181,0.0,15.0,98,0.00,,,0.00,meteohub,2013-05-04 22:35:00,
2013-05-04 18:41:00,45.0,44.4,29.87,East,79,0.0,7.0,98,0.00,,,0.00,meteohub,2013-05-04 22:41:00,
2013-05-04 18:46:00,45.0,44.4,29.86,South,176,0.0,2.0,98,0.00,,,0.00,meteohub,2013-05-04 22:46:00,
2013-05-04 18:51:00,45.1,44.6,29.86,SSE,164,0.0,16.0,98,0.00,,,0.00,meteohub,2013-05-04 22:51:00,
2013-05-04 18:56:00,45.1,44.6,29.86,South,180,0.0,18.0,98,0.00,,,0.00,meteohub,2013-05-04 22:56:00,
2013-05-04 19:01:00,45.3,44.6,29.86,South,175,0.0,18.0,97,0.00,,,0.00,meteohub,2013-05-04 23:01:00,
2013-05-04 19:06:00,45.3,44.6,29.86,South,183,6.0,18.0,97,0.00,,,0.00,meteohub,2013-05-04 23:06:00,
2013-05-04 19:11:00,45.3,44.6,29.87,South,185,0.0,13.0,97,0.00,,,0.00,meteohub,2013-05-04 23:11:00,
2013-05-04 19:16:00,45.3,44.6,29.88,South,179,0.0,13.0,97,0.00,,,0.00,meteohub,2013-05-04 23:16:00,
2013-05-04 19:21:00,45.1,44.6,29.87,South,179,0.0,13.0,98,0.00,,,0.00,meteohub,2013-05-04 23:21:00,
2013-05-04 19:26:00,45.1,44.6,29.86,South,187,0.0,3.0,98,0.00,,,0.00,meteohub,2013-05-04 23:26:00,
2013-05-04 19:31:00,45.1,44.6,29.85,South,189,0.0,4.0,98,0.00,,,0.00,meteohub,2013-05-04 23:31:00,
2013-05-04 19:36:00,45.1,44.6,29.85,South,173,0.0,4.0,98,0.00,,,0.00,meteohub,2013-05-04 23:36:00,
2013-05-04 19:41:00,45.1,44.6,29.85,South,187,0.0,4.0,98,0.00,,,0.00,meteohub,2013-05-04 23:41:00,
2013-05-04 19:46:00,45.0,44.4,29.86,South,183,0.0,1.0,98,0.00,,,0.00,meteohub,2013-05-04 23:46:00,
2013-05-04 19:51:00,45.0,44.2,29.87,South,181,1.0,16.0,97,0.00,,,0.00,meteohub,2013-05-04 23:51:00,
2013-05-04 19:56:00,44.8,44.1,29.88,South,181,0.0,16.0,97,0.00,,,0.00,meteohub,2013-05-04 23:56:00,
2013-05-04 20:01:00,44.8,44.1,29.88,South,179,1.0,14.0,97,0.00,,,0.00,meteohub,2013-05-05 00:01:00,
2013-05-04 20:06:00,44.8,44.1,29.88,SSE,159,0.0,19.0,97,0.00,,,0.00,meteohub,2013-05-05 00:06:00,
2013-05-04 20:11:00,44.8,44.1,29.87,South,183,0.0,19.0,97,0.00,,,0.00,meteohub,2013-05-05 00:11:00,
2013-05-04 20:16:00,44.8,44.1,29.86,South,171,0.0,18.0,97,0.00,,,0.00,meteohub,2013-05-05 00:16:00,
2013-05-04 20:21:00,44.4,43.7,29.86,South,184,0.0,18.0,97,0.00,,,0.00,meteohub,2013-05-05 00:21:00,
2013-05-04 20:26:00,44.4,43.7,29.86,South,185,0.0,18.0,97,0.00,,,0.00,meteohub,2013-05-05 00:26:00,
2013-05-04 20:31:00,44.4,43.7,29.87,South,176,0.0,15.0,97,0.00,,,0.00,meteohub,2013-05-05 00:31:00,
2013-05-04 20:36:00,44.4,43.7,29.91,ESE,115,1.0,15.0,97,0.00,,,0.00,meteohub,2013-05-05 00:36:00,
2013-05-04 20:41:00,44.2,43.5,29.91,South,185,0.0,8.0,97,0.00,,,0.00,meteohub,2013-05-05 00:41:00,
2013-05-04 20:46:00,44.2,43.5,29.91,SSW,194,0.0,10.0,97,0.00,,,0.00,meteohub,2013-05-05 00:46:00,
2013-05-04 20:51:00,44.2,43.5,29.90,South,188,0.0,10.0,97,0.00,,,0.00,meteohub,2013-05-05 00:51:00,
2013-05-04 20:56:00,44.2,43.5,29.90,South,179,0.0,13.0,97,0.00,,,0.00,meteohub,2013-05-05 00:56:00,
2013-05-04 21:01:00,44.2,43.5,29.89,South,181,0.0,13.0,97,0.00,,,0.00,meteohub,2013-05-05 01:01:00,
2013-05-04 21:06:00,44.1,43.3,29.89,South,176,4.0,13.0,97,0.00,,,0.00,meteohub,2013-05-05 01:06:00,
2013-05-04 21:11:00,44.2,43.5,29.90,SSE,162,0.0,11.0,97,0.00,,,0.00,meteohub,2013-05-05 01:11:00,
2013-05-04 21:16:00,44.2,43.5,29.90,South,189,1.0,12.0,97,0.00,,,0.00,meteohub,2013-05-05 01:16:00,
2013-05-04 21:21:00,44.2,43.5,29.89,SSE,163,0.0,16.0,97,0.00,,,0.00,meteohub,2013-05-05 01:21:00,
2013-05-04 21:27:00,44.2,43.5,29.89,South,185,0.0,17.0,97,0.00,,,0.00,meteohub,2013-05-05 01:27:00,
2013-05-04 21:32:00,44.2,43.5,29.89,South,181,0.0,17.0,97,0.00,,,0.00,meteohub,2013-05-05 01:32:00,
2013-05-04 21:37:00,44.2,43.5,29.89,South,182,0.0,17.0,97,0.00,,,0.00,meteohub,2013-05-05 01:37:00,
2013-05-04 21:42:00,44.4,43.7,29.88,South,181,0.0,15.0,97,0.00,,,0.00,meteohub,2013-05-05 01:42:00,
2013-05-04 21:47:00,44.4,43.7,29.88,South,176,0.0,15.0,97,0.00,,,0.00,meteohub,2013-05-05 01:47:00,
2013-05-04 21:52:00,44.4,43.7,29.88,South,187,0.0,15.0,97,0.00,,,0.00,meteohub,2013-05-05 01:52:00,
2013-05-04 21:57:00,44.4,43.7,29.88,South,183,1.0,15.0,97,0.00,,,0.00,meteohub,2013-05-05 01:57:00,
2013-05-04 22:02:00,44.4,43.7,29.88,South,173,1.0,15.0,97,0.00,,,0.00,meteohub,2013-05-05 02:02:00,
2013-05-04 22:07:00,44.6,43.9,29.88,South,186,0.0,11.0,97,0.00,,,0.00,meteohub,2013-05-05 02:07:00,
2013-05-04 22:12:00,44.8,44.1,29.88,South,177,0.0,11.0,97,0.00,,,0.00,meteohub,2013-05-05 02:12:00,
2013-05-04 22:17:00,44.8,44.1,29.88,SSE,157,0.0,18.0,97,0.00,,,0.00,meteohub,2013-05-05 02:17:00,
2013-05-04 22:22:00,44.8,44.1,29.88,SSE,164,3.0,18.0,97,0.00,,,0.00,meteohub,2013-05-05 02:22:00,
2013-05-04 22:27:00,44.8,44.1,29.89,South,181,1.0,25.0,97,0.00,,,0.00,meteohub,2013-05-05 02:27:00,
2013-05-04 22:32:00,44.8,44.1,29.89,SSE,166,0.0,25.0,97,0.00,,,0.00,meteohub,2013-05-05 02:32:00,
2013-05-04 22:37:00,44.6,43.9,29.90,SSW,193,10.0,25.0,97,0.00,,,0.00,meteohub,2013-05-05 02:37:00,
2013-05-04 22:42:00,44.4,43.7,29.89,South,184,0.0,19.0,97,0.00,,,0.00,meteohub,2013-05-05 02:42:00,
2013-05-04 22:47:00,44.4,43.7,29.89,South,182,0.0,19.0,97,0.00,,,0.00,meteohub,2013-05-05 02:47:00,
2013-05-04 22:52:00,44.4,43.7,29.88,South,172,8.0,20.0,97,0.00,,,0.00,meteohub,2013-05-05 02:52:00,
2013-05-04 22:57:00,44.6,43.9,29.88,South,169,1.0,21.0,97,0.00,,,0.00,meteohub,2013-05-05 02:57:00,
2013-05-04 23:02:00,44.6,43.9,29.87,South,183,0.0,21.0,97,0.00,,,0.00,meteohub,2013-05-05 03:02:00,
2013-05-04 23:07:00,44.6,43.9,29.87,South,181,0.0,22.0,97,0.00,,,0.00,meteohub,2013-05-05 03:07:00,
2013-05-04 23:12:00,44.6,43.9,29.86,West,276,0.0,22.0,97,0.00,,,0.00,meteohub,2013-05-05 03:12:00,
2013-05-04 23:17:00,44.6,43.9,29.87,South,179,0.0,24.0,97,0.00,,,0.00,meteohub,2013-05-05 03:17:00,
2013-05-04 23:22:00,44.6,43.9,29.86,South,176,0.0,24.0,97,0.00,,,0.00,meteohub,2013-05-05 03:22:00,
2013-05-04 23:27:00,44.4,43.7,29.86,South,181,1.0,24.0,97,0.00,,,0.00,meteohub,2013-05-05 03:27:00,
2013-05-04 23:32:00,44.4,43.7,29.86,South,177,0.0,24.0,97,0.00,,,0.00,meteohub,2013-05-05 03:32:00,
2013-05-04 23:37:00,44.4,43.7,29.86,SE,142,8.0,24.0,97,0.00,,,0.00,meteohub,2013-05-05 03:37:00,
2013-05-04 23:42:00,44.4,43.7,29.88,South,170,1.0,22.0,97,0.00,,,0.00,meteohub,2013-05-05 03:42:00,
2013-05-04 23:47:00,44.4,43.7,29.88,SSE,161,7.0,18.0,97,0.00,,,0.00,meteohub,2013-05-05 03:47:00,
2013-05-04 23:52:00,44.2,43.5,29.88,South,183,1.0,18.0,97,0.00,,,0.00,meteohub,2013-05-05 03:52:00,
2013-05-04 23:57:00,44.2,43.5,29.88,SSW,203,0.0,13.0,97,0.00,,,0.00,meteohub,2013-05-05 03:57:00,